EHI
0 0 0 0 0 0 0 0 0 0 0 0 0 0 0 0 0 0 0 0 0 0 0 0 0 0 0 0 0 0 0 0 0 0 0 0 0 0 0 0 0 0 0 0
0 0 0 0 0 0 0 0 0 0 0 0 0 0 0 0 0 0 0 0 0 0 0 0 0 0 0 0 0 0 0 0 0 0 0 0 0 0 0 0 0 0 0 0
0 0 0 0 0 0 0 0 0 0 0 0 0 0 0 0 0 0 0 0 0 0 0 0 0 0 0 0 0 0 0 0 0 0 0 0 0 0 0 0 0 0 0 0
0 0 0 0 0 0 0 0 0 0 0 0 0 0 0 0 0 0 0 0 0 0 0 0 0 0 0 0 0 0 0 0 0 0 0 0 0 0 0 0 0 0 0 0
0 0 0 0 0 0 0 0 0 0 0 0 0 0 0 0 0 0 0 0 0 0 0 0 0 0 0 0 0 0 0 0 0 0 0 0 0 0 0 0 0 0 0 0
0 0 0 0 0 0 0 0 0 0 0 0 0 0 0 0 0 0 0 0 0 0 0 0 0 0 0 0 0 0 0 0 0 0 0 0 0 0 0 0 0 0 0 1
0 0 0 0 0 0 0 0 0 0 0 0 0 0 0 0 0 0 0 0 0 0 0 0 0 0 0 0 0 0 0 0 0 0 0 0 0 0 0 0 0 0 1 2
0 0 0 0 0 0 0 0 0 0 0 0 0 0 0 0 0 0 0 0 0 0 0 0 0 0 0 0 0 0 0 0 0 0 0 0 0 0 0 0 0 0 1 2
0 0 0 0 0 0 0 0 0 0 0 0 0 0 0 0 0 0 0 0 0 0 0 0 0 0 0 0 0 0 0 0 0 0 0 0 0 0 0 0 0 0 0 1
0 0 0 0 0 0 0 0 0 0 0 0 0 0 0 0 0 0 0 0 0 0 0 0 0 0 0 0 0 0 0 0 0 0 0 0 0 0 0 0 0 0 0 0
0 0 0 0 0 0 0 0 0 0 0 0 0 0 0 0 0 0 0 0 0 0 0 0 0 0 0 0 0 0 0 0 0 0 0 0 0 0 0 0 0 0 0 0
0 0 0 0 0 0 0 0 0 0 0 0 0 0 0 0 0 0 0 0 0 0 0 0 0 0 0 0 0 0 0 0 0 0 0 0 0 0 0 0 0 0 0 0
0 0 0 0 0 0 0 0 0 0 0 0 0 0 0 0 0 0 0 0 0 0 0 0 0 0 0 0 0 0 0 0 0 0 0 0 0 0 0 0 0 0 0 0
0 0 0 0 0 0 0 0 0 0 0 0 0 0 0 0 0 0 0 0 0 0 0 0 0 0 0 0 0 0 0 0 0 0 0 0 0 0 0 0 0 0 0 0
0 0 0 0 0 0 0 0 0 0 0 0 0 0 0 0 0 0 0 0 0 0 0 0 0 0 0 0 0 0 0 0 0 0 0 0 0 0 0 0 0 0 0 0
0 0 0 0 0 0 0 0 0 0 0 0 0 0 0 0 0 0 0 0 0 0 0 0 0 0 0 0 0 0 0 0 0 0 0 0 0 0 0 0 0 0 0 0
0 0 0 0 0 0 0 0 0 0 0 0 0 0 0 0 0 0 0 0 0 0 0 0 0 0 0 0 0 0 0 0 0 0 0 0 0 0 0 0 0 0 0 0
0 0 0 0 0 0 0 0 0 0 0 0 0 0 0 0 0 0 0 0 0 0 0 0 0 0 0 0 0 0 0 0 0 0 0 0 0 0 0 0 0 0 0 0
0 0 0 0 0 0 0 0 0 0 0 0 0 0 0 0 0 0 0 0 0 0 0 0 0 0 0 0 0 0 0 0 0 0 0 0 0 0 0 0 0 0 0 0
0 0 0 0 0 0 0 0 0 0 0 0 0 0 0 0 0 0 0 0 0 0 0 0 0 0 0 0 0 0 0 0 0 0 0 0 0 0 0 0 0 0 0 0
0 0 0 0 0 0 0 0 0 0 0 0 0 0 0 0 0 0 0 0 0 0 0 0 0 0 0 0 0 0 0 0 0 0 0 0 0 0 0 0 0 0 0 0
0 0 0 0 0 0 0 0 0 0 0 0 0 0 0 0 0 0 0 0 0 0 0 0 0 0 0 0 0 0 0 0 0 0 0 0 0 0 0 0 0 0 0 0
0 0 0 0 0 0 0 0 0 0 0 0 0 0 0 0 0 0 0 0 0 0 0 0 0 0 0 0 0 0 0 0 0 0 0 0 0 0 0 0 0 0 0 0
0 0 0 0 0 0 0 0 0 0 0 0 0 0 0 0 0 0 0 0 0 0 0 0 0 0 0 0 0 0 0 0 0 0 0 0 0 0 0 0 0 0 0 0
0 0 0 0 0 0 0 0 0 0 0 0 0 0 0 0 0 0 0 0 0 0 0 0 0 0 0 0 0 0 0 0 0 0 0 0 0 0 0 0 0 0 0 0
0 0 0 0 0 0 0 0 0 0 0 0 0 0 0 0 0 0 0 0 0 0 0 0 0 0 0 0 0 0 0 0 0 0 0 0 0 0 0 0 0 0 0 0
Wind_Speed
1 2 3 2 2 3 1 0 1 1 2 1 4 5 3 2 1 1 2 3 4 5 5 6 7 7 7 7 7 7 7 7 6 4 4 3 2 2 2 2 3 3 2 3
3 4 4 3 1 2 1 0 0 1 1 2 4 7 5 3 2 2 2 3 4 5 6 7 7 7 7 8 8 8 8 8 7 5 4 3 3 2 2 2 3 2 2 2
5 4 2 1 1 0 0 0 1 2 3 4 4 5 5 5 4 2 2 2 3 5 6 7 7 7 7 7 8 8 8 8 7 7 5 4 3 2 2 3 3 3 3 2
4 3 1 1 1 1 0 2 1 1 2 2 2 3 3 6 5 2 2 2 3 4 5 6 7 7 7 7 6 7 8 8 7 7 5 5 3 3 3 2 3 3 3 3
3 2 1 1 1 1 1 2 2 3 3 3 4 3 4 4 3 2 2 2 2 3 4 5 6 6 6 7 6 6 7 8 8 7 7 5 4 3 3 3 3 3 3 3
3 2 1 2 2 0 2 2 4 3 2 4 5 4 4 2 3 2 2 2 2 3 3 4 5 5 6 6 6 6 7 8 8 8 7 6 5 5 4 4 4 3 2 3
2 3 3 1 0 2 2 2 1 2 3 4 3 3 5 2 4 3 2 1 2 2 3 4 5 5 6 7 7 7 7 8 8 8 7 7 6 5 5 4 4 3 3 3
1 1 3 2 1 0 2 2 2 2 2 1 1 4 3 5 5 3 3 1 1 1 2 2 3 4 5 6 6 6 7 7 8 7 7 6 6 4 4 4 4 3 3 3
2 1 2 2 0 1 1 1 1 2 3 3 4 3 3 5 4 3 2 2 0 1 1 1 2 3 4 4 4 5 6 7 7 8 7 6 6 6 5 5 5 4 4 4
2 1 1 3 2 2 2 2 1 2 3 3 4 4 3 6 5 3 2 2 1 1 0 1 1 2 2 3 3 4 5 5 6 7 7 6 7 6 5 5 5 5 6 6
2 1 1 3 4 4 4 3 3 3 2 2 4 3 1 4 4 3 3 2 2 2 1 0 0 1 1 2 3 4 5 5 5 6 6 6 6 6 6 5 6 6 6 6
1 1 2 3 2 1 2 3 3 2 3 3 3 5 2 3 3 3 3 2 2 2 2 1 0 1 1 2 3 3 4 4 5 5 5 5 6 6 6 6 6 6 6 6
3 1 3 2 2 2 3 4 4 3 2 3 3 6 3 3 3 3 3 2 3 3 2 1 1 0 1 1 2 2 3 4 4 4 5 5 5 6 6 6 6 6 5 5
3 3 3 4 2 1 4 5 6 5 4 5 7 8 5 4 3 2 2 2 2 2 2 2 1 1 0 1 2 3 3 4 4 4 4 5 5 5 5 5 6 5 5 5
2 3 5 8 10 8 9 9 9 10 9 7 7 7 7 3 3 3 2 2 2 2 2 2 2 1 1 0 1 2 2 3 4 4 4 4 5 5 5 5 5 5 5 6
2 4 5 7 8 9 11 12 12 11 12 13 12 13 6 3 2 2 3 3 3 2 2 2 2 2 1 1 0 1 2 2 3 3 4 4 4 5 5 5 5 5 5 5
3 3 3 5 5 7 10 10 12 9 8 8 11 9 3 2 3 2 3 3 3 3 2 2 2 2 2 1 1 0 1 2 2 3 3 4 4 5 5 6 5 5 5 5
3 3 3 4 5 8 7 1 3 6 8 9 8 5 3 3 1 1 3 3 3 2 2 2 2 2 2 1 1 0 0 1 2 3 3 4 4 5 5 5 5 5 5 5
5 3 3 3 5 10 6 3 3 3 6 7 8 5 3 1 1 3 3 3 2 2 2 2 2 2 2 2 1 0 1 1 2 2 3 4 4 4 5 5 5 5 4 4
3 4 4 4 5 8 3 3 3 1 6 4 5 4 3 3 2 3 2 3 2 1 2 2 2 2 2 1 1 0 1 1 2 2 3 3 4 4 4 5 5 4 4 5
4 5 7 7 7 10 3 4 4 3 5 2 3 3 4 5 5 3 3 2 2 2 2 2 2 2 2 2 1 1 1 2 2 2 3 3 4 4 4 4 4 4 5 5
7 6 7 6 8 11 4 6 7 5 1 1 2 2 3 3 2 2 3 3 3 2 2 2 2 1 1 2 1 2 2 2 1 2 3 4 4 4 4 4 4 4 5 5
8 8 5 8 10 5 7 7 5 1 2 2 2 2 2 3 3 3 3 3 3 3 3 3 2 2 2 2 2 2 2 1 1 2 3 3 4 4 4 4 4 4 4 4
5 4 4 7 9 7 7 7 6 5 4 3 3 3 3 4 4 4 4 4 4 4 3 3 3 2 2 2 2 2 1 1 1 2 3 3 3 4 4 3 3 3 4 4
6 3 5 9 10 8 9 8 6 4 3 3 3 3 4 4 5 5 4 4 4 4 3 3 3 3 3 2 2 1 1 0 1 3 3 3 3 3 4 4 3 4 3 5
9 11 9 11 7 5 4 2 2 3 4 4 4 4 4 5 5 4 4 4 3 4 3 3 3 3 3 2 2 2 1 1 1 2 3 2 3 3 4 4 5 7 8 12
Wind_Direction
116 90 90 86 24 354 5 64 167 139 121 217 243 256 259 236 220 338 8 5 1 6 8 8 1 358 356 353 348 342 340 335 333 326 315 303 295 287 288 287 296 298 303 292
98 75 64 72 36 360 327 261 232 111 103 273 260 267 251 211 168 98 34 9 4 2 360 360 358 2 2 357 352 349 346 342 340 330 317 295 288 294 298 311 307 313 320 315
85 80 83 110 96 90 30 303 16 343 323 256 257 269 210 160 137 122 79 37 19 5 358 358 359 0 359 357 352 348 344 343 341 336 330 326 316 316 323 326 323 326 326 318
77 81 95 91 53 11 43 49 3 309 303 271 241 277 224 173 163 139 95 58 27 12 1 360 359 358 356 354 352 349 349 349 346 344 345 343 333 318 316 323 326 328 332 337
85 91 69 46 38 26 358 343 287 277 278 286 234 237 260 175 187 163 115 81 46 22 7 3 2 355 357 358 358 352 352 357 354 353 352 345 337 325 323 331 329 322 329 338
101 92 28 16 28 281 298 274 245 236 261 260 219 209 254 197 182 155 113 74 50 25 15 8 0 358 1 1 0 357 359 360 356 355 355 353 347 337 337 338 327 323 330 332
95 136 137 145 269 187 246 286 257 207 219 241 170 199 241 155 116 122 118 67 40 26 18 3 357 357 358 359 359 358 0 0 359 0 359 356 352 346 342 336 327 330 332 333
46 128 150 178 302 354 247 297 335 291 281 308 195 227 220 126 113 111 119 122 69 39 26 3 359 358 355 357 358 357 358 359 1 2 -0 359 359 354 351 348 343 344 341 334
9 68 129 152 284 310 273 243 1 299 288 265 237 202 149 131 140 159 167 164 179 37 31 4 8 6 358 357 356 355 357 0 3 5 4 2 0 1 359 357 357 355 350 344
344 321 185 142 179 232 286 322 295 253 288 288 271 233 203 178 194 195 198 199 203 200 121 21 6 3 4 357 354 358 0 2 1 4 7 5 1 1 0 1 3 358 353 351
323 304 247 184 210 195 183 211 234 260 271 278 290 282 87 158 172 190 203 195 198 204 182 185 342 7 16 9 8 6 2 3 2 360 360 360 359 358 360 4 3 359 356 354
349 317 271 240 166 100 219 226 223 249 263 243 261 268 117 122 142 176 199 196 193 189 169 168 136 21 21 14 7 7 358 358 355 352 354 355 355 359 2 360 359 357 354 354
339 286 295 250 173 186 240 232 229 254 289 256 244 253 159 161 177 190 201 200 189 182 173 172 173 29 16 11 3 3 360 358 352 352 354 356 359 0 358 353 353 354 351 351
309 264 242 254 273 262 248 239 220 211 223 244 234 251 237 215 214 219 210 199 192 186 185 189 198 199 118 22 5 4 360 358 355 356 357 358 356 353 348 346 349 350 348 349
275 266 262 268 277 273 257 248 235 224 223 237 251 265 267 254 229 218 208 208 204 206 203 196 198 201 173 73 1 5 355 352 352 354 355 353 347 345 347 347 346 349 350 349
259 272 288 279 261 260 261 248 237 238 236 241 258 270 261 237 218 209 204 210 216 224 219 199 189 188 183 176 337 360 346 346 349 348 347 346 348 350 349 342 341 344 346 344
240 260 291 278 295 302 267 239 221 218 217 220 241 248 238 247 235 229 224 220 218 216 213 198 189 184 180 166 132 325 336 345 346 341 340 346 348 348 347 342 344 343 340 339
263 278 264 282 306 257 245 101 177 218 234 226 239 247 236 238 257 252 230 219 213 203 198 193 181 167 151 133 133 175 335 334 332 337 342 345 346 343 341 341 337 333 331 331
220 246 267 271 278 276 262 193 175 208 263 227 228 234 229 153 328 273 219 183 187 185 174 169 159 150 145 150 161 172 301 315 329 335 340 340 341 335 333 331 325 321 322 322
216 232 252 258 264 262 261 131 113 97 274 226 188 197 183 147 237 251 159 142 142 118 109 114 122 131 152 163 140 186 281 308 316 327 328 326 324 319 317 315 314 314 316 312
186 211 225 239 255 266 245 140 131 189 249 151 157 179 182 200 213 185 146 143 139 128 124 126 140 158 171 149 139 226 265 281 297 318 313 312 310 306 304 307 309 313 312 314
189 199 206 204 225 250 180 154 197 221 180 176 199 201 206 219 217 180 176 176 170 170 166 161 163 179 166 150 171 237 254 268 300 309 306 307 308 311 319 315 313 316 319 320
209 209 208 210 224 234 179 203 221 193 222 234 233 235 214 225 233 220 206 196 192 192 186 178 181 191 191 178 182 236 267 302 319 309 304 306 312 314 316 315 316 319 321 316
239 208 237 265 262 256 236 236 239 229 227 237 237 233 220 228 230 225 211 201 197 195 189 184 186 198 207 193 191 221 260 317 310 301 304 308 312 314 316 314 312 311 312 312
251 227 235 258 270 277 259 243 240 235 221 229 244 238 228 226 231 226 218 210 203 195 185 184 198 209 211 193 198 195 177 115 301 300 304 309 311 310 309 308 304 306 289 302
215 220 224 242 241 249 270 253 224 225 228 226 234 247 241 227 226 223 218 210 204 195 184 192 203 209 209 191 189 179 159 167 266 290 299 306 311 310 309 311 311 310 312 316